Wetterdaten: Woche 05.01.09 - 11.01.09 (KW2)
Datum Zeit Temperatur Luftfeuchte Luftdruck Niederschlag Windrichtung Wind
05.01.2009 00:00 -6,7 C 93 % 1018,8 hPa 0,0 l/m SW 7,9 km/h (2 Bft)
05.01.2009 01:00 -6,9 C 93 % 1018,3 hPa 0,0 l/m SW 9,3 km/h (2 Bft)
05.01.2009 02:00 -6,9 C 94 % 1018,1 hPa 0,0 l/m S-SW 5,9 km/h (2 Bft)
05.01.2009 03:00 -6,8 C 94 % 1017,7 hPa 0,0 l/m SW 9,4 km/h (2 Bft)
05.01.2009 04:00 -7,0 C 92 % 1017,6 hPa 0,0 l/m S-SO 7,9 km/h (2 Bft)
05.01.2009 05:00 -6,9 C 94 % 1017,6 hPa 0,0 l/m S-SW 6,8 km/h (2 Bft)
05.01.2009 06:00 -6,8 C 94 % 1017,3 hPa 0,0 l/m S-SW 11,4 km/h (2 Bft)
05.01.2009 07:00 -6,8 C 94 % 1017,3 hPa 0,0 l/m SW 9,9 km/h (2 Bft)
05.01.2009 08:00 -6,7 C 94 % 1017,5 hPa 0,0 l/m SW 5,1 km/h (1 Bft)
05.01.2009 09:00 -6,3 C 93 % 1017,7 hPa 0,0 l/m S-SW 5,3 km/h (1 Bft)
05.01.2009 10:00 -5,6 C 92 % 1017,8 hPa 0,0 l/m S-SW 5,2 km/h (1 Bft)
05.01.2009 11:00 -4,6 C 89 % 1017,7 hPa 0,0 l/m S-SW 6,8 km/h (2 Bft)
05.01.2009 12:00 -4,3 C 89 % 1017,1 hPa 0,0 l/m S-SW 7,3 km/h (2 Bft)
05.01.2009 13:00 -3,9 C 88 % 1016,9 hPa 0,0 l/m SW 7,2 km/h (2 Bft)
05.01.2009 14:00 -3,7 C 87 % 1016,7 hPa 0,0 l/m SW 4,9 km/h (1 Bft)
05.01.2009 15:00 -3,5 C 86 % 1016,8 hPa 0,0 l/m SW 3,5 km/h (1 Bft)
05.01.2009 16:00 -3,7 C 87 % 1017,1 hPa 0,0 l/m SW 4,1 km/h (1 Bft)
05.01.2009 17:00 -3,9 C 89 % 1017,4 hPa 0,0 l/m SW 4,3 km/h (1 Bft)
05.01.2009 18:00 -4,2 C 89 % 1017,6 hPa 0,0 l/m SW 2,4 km/h (1 Bft)
05.01.2009 19:00 -4,4 C 91 % 1017,9 hPa 0,0 l/m N 0,1 km/h (0 Bft)
05.01.2009 20:00 -4,6 C 93 % 1018,0 hPa 0,0 l/m N 0,0 km/h (0 Bft)
05.01.2009 21:00 -4,6 C 94 % 1018,0 hPa 0,0 l/m N 0,1 km/h (0 Bft)
05.01.2009 22:00 -4,6 C 94 % 1018,1 hPa 0,0 l/m W-NW 3,2 km/h (1 Bft)
05.01.2009 23:00 -4,6 C 94 % 1018,1 hPa 0,0 l/m N-NO 4,5 km/h (1 Bft)
06.01.2009 00:00 -4,5 C 94 % 1017,8 hPa 0,0 l/m N-NO 5,2 km/h (1 Bft)
06.01.2009 01:00 -4,3 C 94 % 1017,4 hPa 0,0 l/m N-NO 6,9 km/h (2 Bft)
06.01.2009 02:00 -4,4 C 93 % 1017,5 hPa 0,0 l/m N-NO 8,3 km/h (2 Bft)
06.01.2009 03:00 -4,9 C 93 % 1017,4 hPa 0,0 l/m N-NO 12,1 km/h (2 Bft)
06.01.2009 04:00 -5,0 C 94 % 1017,1 hPa 0,0 l/m N-NO 9,5 km/h (2 Bft)
06.01.2009 05:00 -5,1 C 94 % 1017,3 hPa 0,0 l/m NO 12,6 km/h (3 Bft)
06.01.2009 06:00 -5,3 C 94 % 1017,4 hPa 0,0 l/m NO 14,1 km/h (3 Bft)
06.01.2009 07:00 -5,4 C 94 % 1017,4 hPa 0,0 l/m N-NO 11,2 km/h (2 Bft)
06.01.2009 08:00 -5,4 C 95 % 1017,6 hPa 0,0 l/m N-NO 10,2 km/h (2 Bft)
06.01.2009 09:00 -5,3 C 94 % 1017,6 hPa 0,0 l/m N-NO 12,0 km/h (2 Bft)
06.01.2009 10:00 -5,3 C 94 % 1017,8 hPa 0,0 l/m N 12,6 km/h (3 Bft)
06.01.2009 11:00 -5,0 C 94 % 1017,4 hPa 0,0 l/m NO 12,8 km/h (3 Bft)
06.01.2009 12:00 -4,6 C 93 % 1016,9 hPa 0,0 l/m NO 11,4 km/h (2 Bft)
06.01.2009 13:00 -4,4 C 92 % 1016,6 hPa 0,0 l/m NO 12,6 km/h (3 Bft)
06.01.2009 14:00 -4,2 C 91 % 1016,4 hPa 0,0 l/m NO 14,1 km/h (3 Bft)
06.01.2009 15:00 -4,2 C 91 % 1016,6 hPa 0,0 l/m O-NO 17,2 km/h (3 Bft)
06.01.2009 16:00 -4,3 C 91 % 1017,0 hPa 0,0 l/m NO 14,4 km/h (3 Bft)
06.01.2009 17:00 -4,4 C 91 % 1017,4 hPa 0,0 l/m O-NO 13,4 km/h (3 Bft)
06.01.2009 18:00 -4,5 C 88 % 1017,6 hPa 0,0 l/m O-SO 14,5 km/h (3 Bft)
06.01.2009 19:00 -4,7 C 89 % 1017,9 hPa 0,0 l/m O-SO 11,0 km/h (2 Bft)
06.01.2009 20:00 -4,8 C 89 % 1018,0 hPa 0,0 l/m O-SO 10,6 km/h (2 Bft)
06.01.2009 21:00 -5,0 C 88 % 1018,2 hPa 0,0 l/m O-SO 11,0 km/h (2 Bft)
06.01.2009 22:00 -5,1 C 89 % 1018,4 hPa 0,0 l/m O 7,2 km/h (2 Bft)
06.01.2009 23:00 -5,1 C 89 % 1018,7 hPa 0,0 l/m O-SO 7,5 km/h (2 Bft)
07.01.2009 00:00 -5,3 C 89 % 1018,5 hPa 0,8 l/m O-SO 9,7 km/h (2 Bft)
07.01.2009 01:00 -5,4 C 90 % 1018,3 hPa 0,0 l/m O-SO 6,5 km/h (2 Bft)
07.01.2009 02:00 -5,5 C 90 % 1018,9 hPa 0,0 l/m O-SO 6,0 km/h (2 Bft)
07.01.2009 03:00 -5,6 C 90 % 1018,9 hPa 0,0 l/m O-SO 7,0 km/h (2 Bft)
07.01.2009 04:00 -5,6 C 91 % 1018,6 hPa 0,0 l/m O-NO 7,0 km/h (2 Bft)
07.01.2009 05:00 -5,7 C 91 % 1018,6 hPa 0,0 l/m NO 7,0 km/h (2 Bft)
07.01.2009 06:00 -5,7 C 91 % 1018,7 hPa 0,0 l/m O-SO 8,0 km/h (2 Bft)
07.01.2009 07:00 -5,8 C 91 % 1018,8 hPa 0,0 l/m O-SO 9,9 km/h (2 Bft)
07.01.2009 08:00 -5,9 C 91 % 1019,3 hPa 0,0 l/m O 8,8 km/h (2 Bft)
07.01.2009 09:00 -5,8 C 91 % 1019,7 hPa 0,0 l/m NO 11,3 km/h (2 Bft)
07.01.2009 10:00 -5,7 C 91 % 1020,3 hPa 0,0 l/m NO 11,4 km/h (2 Bft)
07.01.2009 11:00 -5,6 C 91 % 1020,3 hPa 0,0 l/m O-NO 9,9 km/h (2 Bft)
07.01.2009 12:00 -5,4 C 90 % 1019,9 hPa 0,0 l/m NO 11,1 km/h (2 Bft)
07.01.2009 13:00 -5,3 C 90 % 1019,5 hPa 0,0 l/m NO 10,2 km/h (2 Bft)
07.01.2009 14:00 -5,3 C 89 % 1019,8 hPa 0,0 l/m O-NO 13,0 km/h (3 Bft)
07.01.2009 15:00 -5,4 C 88 % 1020,3 hPa 0,0 l/m O-NO 13,0 km/h (3 Bft)
07.01.2009 16:00 -5,7 C 88 % 1020,6 hPa 0,0 l/m NO 13,8 km/h (3 Bft)
07.01.2009 17:00 -6,0 C 88 % 1021,1 hPa 0,0 l/m O-NO 14,1 km/h (3 Bft)
07.01.2009 18:00 -6,3 C 88 % 1021,6 hPa 0,0 l/m N-NO 15,3 km/h (3 Bft)
07.01.2009 19:00 -6,7 C 88 % 1022,4 hPa 0,0 l/m NO 14,6 km/h (3 Bft)
07.01.2009 20:00 -6,8 C 89 % 1023,0 hPa 0,0 l/m NO 8,8 km/h (2 Bft)
07.01.2009 21:00 -7,1 C 89 % 1023,5 hPa 0,0 l/m NO 8,7 km/h (2 Bft)
07.01.2009 22:00 -7,2 C 91 % 1023,8 hPa 0,0 l/m NO 9,8 km/h (2 Bft)
07.01.2009 23:00 -7,2 C 90 % 1024,2 hPa 0,0 l/m N-NO 7,7 km/h (2 Bft)
08.01.2009 00:00 -7,0 C 91 % 1024,3 hPa 0,0 l/m NO 10,4 km/h (2 Bft)
08.01.2009 01:00 -6,7 C 91 % 1024,5 hPa 0,0 l/m N-NO 15,0 km/h (3 Bft)
08.01.2009 02:00 -6,9 C 90 % 1025,1 hPa 0,0 l/m O-NO 12,0 km/h (2 Bft)
08.01.2009 03:00 -7,2 C 91 % 1025,4 hPa 0,0 l/m NO 16,4 km/h (3 Bft)
08.01.2009 04:00 -7,3 C 91 % 1025,6 hPa 0,0 l/m N-NO 14,1 km/h (3 Bft)
08.01.2009 05:00 -7,8 C 91 % 1026,0 hPa 0,0 l/m O-NO 16,4 km/h (3 Bft)
08.01.2009 06:00 -8,1 C 91 % 1026,3 hPa 0,0 l/m NO 16,2 km/h (3 Bft)
08.01.2009 07:00 -8,2 C 92 % 1026,6 hPa 0,0 l/m NO 13,4 km/h (3 Bft)
08.01.2009 08:00 -8,1 C 92 % 1027,0 hPa 0,0 l/m NO 18,0 km/h (3 Bft)
08.01.2009 09:00 -7,9 C 92 % 1027,6 hPa 0,0 l/m NO 18,8 km/h (3 Bft)
08.01.2009 10:00 -7,1 C 91 % 1027,7 hPa 0,0 l/m O-NO 19,6 km/h (3 Bft)
08.01.2009 11:00 -6,4 C 88 % 1027,5 hPa 0,0 l/m O 22,0 km/h (4 Bft)
08.01.2009 12:00 -6,0 C 87 % 1027,1 hPa 0,0 l/m NO 21,8 km/h (4 Bft)
08.01.2009 13:00 -5,4 C 86 % 1026,6 hPa 0,0 l/m NO 15,6 km/h (3 Bft)
08.01.2009 14:00 -4,4 C 83 % 1026,3 hPa 0,0 l/m NO 15,4 km/h (3 Bft)
08.01.2009 15:00 -4,3 C 81 % 1026,4 hPa 0,0 l/m N 15,3 km/h (3 Bft)
08.01.2009 16:00 -6,1 C 85 % 1027,0 hPa 0,0 l/m N-NO 14,0 km/h (3 Bft)
08.01.2009 17:00 -7,3 C 88 % 1027,3 hPa 0,0 l/m N-NO 14,1 km/h (3 Bft)
08.01.2009 18:00 -8,0 C 90 % 1027,9 hPa 0,0 l/m N-NO 10,8 km/h (2 Bft)
08.01.2009 19:00 -8,4 C 91 % 1028,5 hPa 0,0 l/m N 12,1 km/h (2 Bft)
08.01.2009 20:00 -8,8 C 91 % 1028,7 hPa 0,0 l/m N 8,7 km/h (2 Bft)
08.01.2009 21:00 -9,3 C 91 % 1028,9 hPa 0,0 l/m N 6,9 km/h (2 Bft)
08.01.2009 22:00 -9,8 C 91 % 1029,1 hPa 0,0 l/m N 4,9 km/h (1 Bft)
08.01.2009 23:00 -10,4 C 91 % 1029,3 hPa 0,0 l/m N-NW 2,8 km/h (1 Bft)
09.01.2009 00:00 -10,8 C 91 % 1029,3 hPa 0,0 l/m N-NW 2,1 km/h (1 Bft)
09.01.2009 01:00 -11,3 C 91 % 1029,2 hPa 0,0 l/m N 1,3 km/h (1 Bft)
09.01.2009 02:00 -11,3 C 93 % 1029,6 hPa 0,0 l/m N 1,2 km/h (1 Bft)
09.01.2009 03:00 -10,3 C 94 % 1029,6 hPa 0,0 l/m N 1,1 km/h (0 Bft)
09.01.2009 04:00 -10,1 C 91 % 1029,6 hPa 0,0 l/m W-NW 1,2 km/h (1 Bft)
09.01.2009 05:00 -9,8 C 95 % 1029,6 hPa 0,0 l/m W-NW 3,7 km/h (1 Bft)
09.01.2009 06:00 -8,9 C 95 % 1029,7 hPa 0,0 l/m N 1,5 km/h (1 Bft)
09.01.2009 07:00 -8,6 C 95 % 1030,1 hPa 0,0 l/m SW 3,5 km/h (1 Bft)
09.01.2009 08:00 -8,7 C 95 % 1030,5 hPa 0,0 l/m S 3,1 km/h (1 Bft)
09.01.2009 09:00 -8,6 C 95 % 1030,8 hPa 0,0 l/m S 2,8 km/h (1 Bft)
09.01.2009 10:00 -8,2 C 95 % 1031,1 hPa 0,0 l/m S-SW 3,1 km/h (1 Bft)
09.01.2009 11:00 -7,4 C 94 % 1030,9 hPa 0,0 l/m S 2,5 km/h (1 Bft)
09.01.2009 12:00 -6,7 C 93 % 1030,3 hPa 0,0 l/m NW 2,5 km/h (1 Bft)
09.01.2009 13:00 -5,8 C 91 % 1029,9 hPa 0,0 l/m NW 3,3 km/h (1 Bft)
09.01.2009 14:00 -5,7 C 90 % 1029,7 hPa 0,0 l/m N 4,5 km/h (1 Bft)
09.01.2009 15:00 -5,9 C 90 % 1029,6 hPa 0,0 l/m N-NW 5,1 km/h (1 Bft)
09.01.2009 16:00 -6,5 C 92 % 1029,6 hPa 0,0 l/m N 4,5 km/h (1 Bft)
09.01.2009 17:00 -6,8 C 94 % 1029,6 hPa 0,0 l/m N 4,4 km/h (1 Bft)
09.01.2009 18:00 -7,0 C 95 % 1029,8 hPa 0,0 l/m NO 4,0 km/h (1 Bft)
09.01.2009 19:00 -7,4 C 95 % 1030,0 hPa 0,0 l/m NO 4,3 km/h (1 Bft)
09.01.2009 20:00 -7,7 C 94 % 1030,2 hPa 0,0 l/m N-NO 4,8 km/h (1 Bft)
09.01.2009 21:00 -8,0 C 95 % 1030,5 hPa 0,0 l/m NO 4,9 km/h (1 Bft)
09.01.2009 22:00 -8,2 C 95 % 1030,5 hPa 0,0 l/m N-NO 5,6 km/h (1 Bft)
09.01.2009 23:00 -8,2 C 95 % 1030,4 hPa 0,0 l/m N-NO 5,2 km/h (1 Bft)
10.01.2009 00:00 -8,4 C 95 % 1030,0 hPa 0,0 l/m N-NO 3,1 km/h (1 Bft)
10.01.2009 01:00 -8,7 C 95 % 1029,7 hPa 0,0 l/m NO 3,3 km/h (1 Bft)
10.01.2009 02:00 -8,9 C 95 % 1029,8 hPa 0,0 l/m NO 4,3 km/h (1 Bft)
10.01.2009 03:00 -9,1 C 94 % 1029,8 hPa 0,0 l/m O-NO 3,1 km/h (1 Bft)
10.01.2009 04:00 -9,4 C 94 % 1029,8 hPa 0,0 l/m N-NO 5,2 km/h (1 Bft)
10.01.2009 05:00 -9,8 C 94 % 1029,7 hPa 0,0 l/m N-NO 5,7 km/h (1 Bft)
10.01.2009 06:00 -9,8 C 94 % 1029,8 hPa 0,0 l/m N-NO 4,7 km/h (1 Bft)
10.01.2009 07:00 -9,8 C 94 % 1029,9 hPa 0,0 l/m N-NO 5,3 km/h (1 Bft)
10.01.2009 08:00 -9,9 C 94 % 1030,2 hPa 0,0 l/m N-NO 4,5 km/h (1 Bft)
10.01.2009 09:00 -9,7 C 94 % 1030,5 hPa 0,0 l/m N-NO 4,0 km/h (1 Bft)
10.01.2009 10:00 -9,4 C 93 % 1030,7 hPa 0,0 l/m NO 4,3 km/h (1 Bft)
10.01.2009 11:00 -8,9 C 92 % 1030,7 hPa 0,0 l/m NO 4,0 km/h (1 Bft)
10.01.2009 12:00 -8,1 C 91 % 1030,2 hPa 0,0 l/m N-NO 3,2 km/h (1 Bft)
10.01.2009 13:00 -6,9 C 88 % 1029,9 hPa 0,0 l/m N 5,7 km/h (1 Bft)
10.01.2009 14:00 -6,8 C 88 % 1029,6 hPa 0,0 l/m N-NW 3,9 km/h (1 Bft)
10.01.2009 15:00 -6,7 C 88 % 1030,0 hPa 0,0 l/m S-SW 3,7 km/h (1 Bft)
10.01.2009 16:00 -6,7 C 88 % 1030,7 hPa 0,0 l/m N 1,2 km/h (1 Bft)
10.01.2009 17:00 -8,0 C 87 % 1031,2 hPa 0,0 l/m N 0,1 km/h (0 Bft)
10.01.2009 18:00 -9,1 C 93 % 1031,7 hPa 0,0 l/m SW 8,7 km/h (2 Bft)
10.01.2009 19:00 -8,4 C 96 % 1031,9 hPa 0,0 l/m W-SW 10,1 km/h (2 Bft)
10.01.2009 20:00 -7,6 C 96 % 1032,3 hPa 0,0 l/m W-SW 6,8 km/h (2 Bft)
10.01.2009 21:00 -7,3 C 96 % 1032,5 hPa 0,0 l/m W 7,6 km/h (2 Bft)
10.01.2009 22:00 -6,9 C 96 % 1032,6 hPa 0,0 l/m SW 9,5 km/h (2 Bft)
10.01.2009 23:00 -6,7 C 96 % 1032,7 hPa 0,0 l/m SW 8,8 km/h (2 Bft)
11.01.2009 00:00 -6,7 C 95 % 1032,8 hPa 0,0 l/m W 6,0 km/h (2 Bft)
11.01.2009 01:00 -6,6 C 95 % 1032,7 hPa 0,0 l/m W-SW 6,1 km/h (2 Bft)
11.01.2009 02:00 -6,5 C 96 % 1033,0 hPa 0,0 l/m S-SW 10,3 km/h (2 Bft)
11.01.2009 03:00 -6,7 C 95 % 1033,6 hPa 0,0 l/m W-SW 8,6 km/h (2 Bft)
11.01.2009 04:00 -7,1 C 94 % 1034,5 hPa 0,0 l/m SW 4,3 km/h (1 Bft)
11.01.2009 05:00 -7,9 C 93 % 1034,7 hPa 0,0 l/m SW 4,1 km/h (1 Bft)
11.01.2009 06:00 -8,0 C 95 % 1034,8 hPa 0,0 l/m W-SW 7,1 km/h (2 Bft)
11.01.2009 07:00 -7,6 C 95 % 1034,9 hPa 0,0 l/m W-SW 10,9 km/h (2 Bft)
11.01.2009 08:00 -7,6 C 95 % 1035,3 hPa 0,0 l/m W-SW 4,5 km/h (1 Bft)
11.01.2009 09:00 -7,3 C 95 % 1035,8 hPa 0,0 l/m W 4,0 km/h (1 Bft)
11.01.2009 10:00 -7,1 C 94 % 1035,7 hPa 0,0 l/m W-SW 5,2 km/h (1 Bft)
11.01.2009 11:00 -7,0 C 94 % 1035,2 hPa 0,0 l/m SW 4,1 km/h (1 Bft)
11.01.2009 12:00 -6,2 C 95 % 1034,9 hPa 0,0 l/m SW 4,7 km/h (1 Bft)
11.01.2009 13:00 -5,8 C 95 % 1034,3 hPa 0,0 l/m SW 4,0 km/h (1 Bft)
11.01.2009 14:00 -5,8 C 95 % 1033,9 hPa 0,0 l/m SW 3,6 km/h (1 Bft)
11.01.2009 15:00 -5,4 C 95 % 1034,1 hPa 0,0 l/m SW 2,9 km/h (1 Bft)
11.01.2009 16:00 -5,6 C 95 % 1034,3 hPa 0,0 l/m SW 4,3 km/h (1 Bft)
11.01.2009 17:00 -6,4 C 95 % 1034,6 hPa 0,0 l/m S-SW 2,7 km/h (1 Bft)
11.01.2009 18:00 -7,1 C 94 % 1034,7 hPa 0,0 l/m W 2,0 km/h (1 Bft)
11.01.2009 19:00 -7,9 C 94 % 1034,7 hPa 0,0 l/m N 2,1 km/h (1 Bft)
11.01.2009 20:00 -8,3 C 95 % 1034,6 hPa 0,0 l/m SW 2,8 km/h (1 Bft)
11.01.2009 21:00 -8,4 C 95 % 1034,5 hPa 0,0 l/m SW 3,1 km/h (1 Bft)
11.01.2009 22:00 -8,8 C 94 % 1034,4 hPa 0,0 l/m SW 2,5 km/h (1 Bft)
11.01.2009 23:00 -9,2 C 94 % 1034,2 hPa 0,0 l/m SW 2,5 km/h (1 Bft)
Min-Datum _ 09.01.09 08.01.09 06.01.09 - - 05.01.09
_ Min-Zeit 02:05 15:05 13:50 - - 18:25
Minimum _ -11,5 C 80 % 1016,4 hPa - - 0,0 km/h (0 Bft)
Max-Datum _ 05.01.09 05.01.09 11.01.09 07.01.09 - 08.01.09
_ Max-Zeit 15:15 05:10 09:40 00:10 - 11:45
Maximum _ -3,4 C 100 % 1036,1 hPa 0,8 l/m - 27,4 km/h
O-NO (4 Bft)
Durchschnitt _ -6,7 C 92 % 1025,4 hPa #0,8 l/m NO 7,7 km/h (2 Bft)